Location: Unspecified
(0.0000°N, 0.0000°E)
Time: 11:46:38
(UTC+02:00)

Cosmos 1072 Rocket - Visible Passes

Search period start: 20 October 2014 00:00
Search period end: 29 October 2014 23:00
Orbit: 949 x 1008 km, 82.9° (Epoch: 19 October)

Date Brightness Start Highest point End Pass type
(mag) Time Alt. Az. Time Alt. Az. Time Alt. Az.
20 Oct 4.4 06:08:22 10° S 06:14:39 69° W 06:20:59 10° N visible
21 Oct 6.6 04:51:15 10° SE 04:55:53 21° E 05:00:31 10° NE visible
21 Oct 5.2 06:35:32 10° SSW 06:41:00 31° W 06:46:31 10° NNW visible
22 Oct 5.3 05:16:10 10° SSE 05:22:13 48° E 05:28:18 10° NNE visible
22 Oct 6.0 07:04:33 10° WSW 07:07:22 13° W 07:10:12 10° WNW visible
23 Oct 4.4 05:42:13 10° S 05:48:34 79° W 05:54:57 10° N visible
24 Oct 6.9 04:25:34 10° SE 04:27:53 16° ESE 04:27:53 16° ESE visible
24 Oct 5.6 06:09:13 10° SSW 06:12:27 26° SW 06:12:27 26° SW visible
25 Oct 6.5 04:50:12 10° SSE 04:52:14 20° SSE 04:52:14 20° SSE visible
26 Oct 6.6 04:16:06 10° S 04:17:08 16° S 04:17:08 16° S visible
